Location: Nairn
(57.5833°N, 3.8667°W)
Time: 10:07:39
(UTC+00:00)

N. Korean satellite - Pass Details

Date: 04 November 2020
Orbit: 452 x 504 km, 97.2° (Epoch: 25 November)

Event Time Altitude Azimuth Distance (km) Brightness Sun altitude
Rises 04:58:49 0° 25° (NNE) 2,483 10.6 -21.1°
Reaches altitude 10° 05:01:19 10° 44° (NE) 1,603 9.8 -20.8°
Maximum altitude 05:03:49 19° 91° (E) 1,166 9.4 -20.4°
Drops below altitude 10° 05:06:18 10° 138° (SE) 1,597 9.7 -20.1°
Sets 05:08:47 0° 157° (SSE) 2,471 10.4 -19.8°
